TimeMST,TemperatureF,Dew PointF,Humidity,Sea Level PressureIn,VisibilityMPH,Wind Direction,Wind SpeedMPH,Gust SpeedMPH,PrecipitationIn,Events,Conditions,WindDirDegrees,DateUTC
12:53 AM,35.1,19.9,54,29.96,10.0,SW,24.2,31.1,N/A,,Clear,220,2012-11-22 07:53:00
1:53 AM,35.1,19.9,54,30.00,10.0,SW,17.3,-,N/A,,Clear,220,2012-11-22 08:53:00
2:53 AM,34.0,21.0,59,30.05,10.0,SW,13.8,-,N/A,,Clear,230,2012-11-22 09:53:00
3:53 AM,34.0,21.0,59,30.07,10.0,WSW,18.4,-,N/A,,Partly Cloudy,240,2012-11-22 10:53:00
4:53 AM,32.0,21.9,66,30.14,10.0,WSW,11.5,-,N/A,,Clear,250,2012-11-22 11:53:00
5:02 AM,23.0,17.6,80,30.07,8.0,North,17.3,26.5,N/A,,Clear,350,2012-11-22 12:02:00
5:11 AM,21.2,19.4,93,30.08,5.0,North,15.0,-,N/A,,Scattered Clouds,360,2012-11-22 12:11:00
5:23 AM,21.2,17.6,86,30.09,5.0,North,16.1,-,N/A,,Mostly Cloudy,360,2012-11-22 12:23:00
5:53 AM,19.9,17.1,89,30.27,5.0,North,13.8,-,N/A,,Overcast,10,2012-11-22 12:53:00
6:53 AM,19.0,15.1,85,30.35,6.0,North,11.5,-,N/A,,Overcast,10,2012-11-22 13:53:00
7:06 AM,19.4,15.8,86,30.21,7.0,North,8.1,-,N/A,,Overcast,350,2012-11-22 14:06:00
7:53 AM,19.0,15.1,85,30.41,7.0,North,5.8,-,N/A,,Overcast,350,2012-11-22 14:53:00
8:53 AM,19.0,14.0,81,30.45,6.0,North,5.8,-,N/A,,Haze,10,2012-11-22 15:53:00
9:53 AM,19.9,15.1,81,30.47,7.0,North,4.6,-,N/A,,Overcast,10,2012-11-22 16:53:00
10:53 AM,21.0,16.0,81,30.48,7.0,Calm,Calm,-,N/A,,Overcast,0,2012-11-22 17:53:00
11:53 AM,24.1,17.1,75,30.47,8.0,NW,3.5,-,N/A,,Mostly Cloudy,320,2012-11-22 18:53:00
12:10 PM,26.6,17.6,69,30.34,8.0,Calm,Calm,-,N/A,,Overcast,0,2012-11-22 19:10:00
12:40 PM,26.6,17.6,69,30.34,8.0,Calm,Calm,-,N/A,,Scattered Clouds,0,2012-11-22 19:40:00
12:53 PM,25.0,18.0,75,30.48,8.0,Calm,Calm,-,N/A,,Clear,0,2012-11-22 19:53:00
1:53 PM,28.9,19.0,67,30.48,9.0,NNE,4.6,-,N/A,,Clear,30,2012-11-22 20:53:00
2:53 PM,28.9,18.0,64,30.49,9.0,ENE,5.8,-,N/A,,Clear,70,2012-11-22 21:53:00
3:53 PM,27.0,19.0,72,30.52,9.0,East,5.8,-,N/A,,Clear,80,2012-11-22 22:53:00
4:53 PM,24.1,18.0,77,30.55,8.0,East,6.9,-,N/A,,Clear,100,2012-11-22 23:53:00
5:53 PM,23.0,17.1,78,30.60,9.0,East,5.8,-,N/A,,Clear,100,2012-11-23 00:53:00
6:53 PM,21.9,17.1,82,30.60,9.0,ESE,6.9,-,N/A,,Clear,120,2012-11-23 01:53:00
7:53 PM,21.9,17.1,82,30.59,9.0,SE,3.5,-,N/A,,Clear,140,2012-11-23 02:53:00
8:53 PM,23.0,17.1,78,30.60,10.0,SSW,6.9,-,N/A,,Clear,210,2012-11-23 03:53:00
9:53 PM,25.0,18.0,75,30.58,10.0,South,10.4,-,N/A,,Clear,190,2012-11-23 04:53:00
10:53 PM,28.0,18.0,66,30.55,10.0,South,9.2,-,N/A,,Clear,170,2012-11-23 05:53:00
11:53 PM,25.0,17.1,72,30.52,10.0,South,8.1,-,N/A,,Clear,190,2012-11-23 06:53:00